Погода в Карши

Погода в Карши : погода сейчас, прогноз погоды и архив. Всё, что Вы хотите узнать о погоде в Карши!

Хотите узнать прогноз погоды в Карши? Тогда Вам сюда: Погода в Карши

Поиск расширенной информации на нашем сайте:

Другие новости

Новости СМИ2

Главная страница сайта

Новости сайта

03.07.2017

Напоминаем, что на нашем специализированном сайте Метеоцентр.Азия вы можете получить высокодетализированные автоматические прогнозы погоды по пунктам России, СНГ и мира в авиационном формате (включающие направление и скорость ветра, видимость, явления погоды, количество и форму облачности, нижнюю и верхнюю границу облачности).


Погода в Карши - сегодня

Время (UTC), дата Ветер
(°,м/с) 
Видим.   Явления Облачность Т
(°С)
Тd
(°С)
f(%) Тe
(°С)
Pmin
(гПа)
dP
(гПа)
Po
(мм)
O2
(г/м3)
Тmin Tmax R s Состояние
почвы
00 16.02.18 060 (СВ) 4000 м  дымка  3/0 верхняя 
[Ci fib]
-0.6 -2.4 88 -1  1033.9  -0.8  740  299           
03 16.02.18 тихо ()   2000 м  дымка  ясно 
-1 -2 93 -1  1034.2  0.3  740  300           
06 16.02.18 210 (ЮЗ) 10 км    6/6 500 м 
[Sc]
+4.4 +1.9 84 +4  1035.3  1.8  742  294  -1         
09 16.02.18 нст () 10 км    10/10 480 м кучево-дожд. 
[Cb calv]
+5.1 +1.9 80 +6  1034.3  -0.8  741  293           
12 16.02.18 360 (С) 10 км    10/10 630 м кучево-дожд. 
[Cb calv]
+5.8 +1.3 73 +6  1033.7  -0.6  741  292           
15 16.02.18 360 (С) 4000 м  дымка  8/8 540 м 
[St]
+3.8 +0.9 81 +5  1034  741  294    +6.1       
18 16.02.18 350 (С) 2000 м  дымка  4/4 570 м 
[St]
+1.5 +0.7 94 +2  1034.1  -0.3  740  297    +6.1       
21 16.02.18 050 (СВ) 4000 м  дымка  ясно 
+1.2 -0.8 86 +2  1033.4  -0.6  740  297           
00 17.02.18 110 (В) 10 км    10/10 400 м 
[Sc]
+2.2 +0 85 +2  1033.9  0.6  740  296           
03 17.02.18 140 (ЮВ) 4000 м  дымка  10/10 400 м 
[Sc]
+2.7 +0.3 84 +2  1032.2  -1.6  739  295  +1.2         
06 17.02.18 050 (СВ) 10 км    6/6 420 м 
[Sc]
+5.2 +1.7 78 +5  1033.1  1.4  740  292  +1.2         
09 17.02.18 020 (С) 10 км    ясно 
+9 +3.4 68 +8  1029  -3.3  738  287           
12 17.02.18 040 (СВ) 10 км    3/0 верхняя 
[Ci fib]
+8 +2.3 67 +7  1026.9  -2.2  736  288           
15 17.02.18 020 (С) 4000 м  дымка  3/0 верхняя 
[Ci fib]
+5.4 +2.7 83 +6  1026.3  -1  735  290    +9.5       
18 17.02.18 320 (СЗ) 4000 м  дымка  5/0 верхняя 
[Ci fib]
+2.8 +1.8 93 +2  1026  -0.7  735  293    +9.5       
21 17.02.18 330 (СЗ) 4000 м  дымка  6/0 средняя 
[Ac trans]
+0.9 +0.1 94 +2  1024.5  -1.7  734  294           
00 18.02.18 040 (СВ) 4000 м  дымка  4/0 верхняя 
[Ci fib]
+1.9 +0.6 91 +1  1023.2  -1.2  733  293           
03 18.02.18 040 (СВ) 0200 м  туман  ?/?  
-0.2 -0.2 100 -1  1024.1  0.4  733  295           
06 18.02.18 нст () 2000 м  в посл. час туман  4/0 верхняя 
[Cs]
+4.1 +3.6 97 +5  1023.5  0.3  733  290  -0.2         
09 18.02.18 280 (З) 10 км    ясно 
+12.1 +3.8 57 +12  1020.1  -2  732  282           
12 18.02.18 350 (С) 10 км    3/0 верхняя 
[Ci fib]
+13.8 +2.5 46 +13  1018.7  -1  731  280           
15 18.02.18 010 (С) 4000 м  мгла  3/0 верхняя 
[Ci fib]
+9.6 +1.9 59 +11  1018.1  -1.4  730  284    +14.4       
18 18.02.18 060 (СВ) 4000 м  дымка  ясно 
+5 +2.5 84 +5  1018.3  -0.3  730  288    +14.4       
21 18.02.18 050 (СВ) 4000 м  дымка  ясно 
+4 +2.2 88 +3  1015.8  -2.6  728  289           
00 19.02.18 060 (СВ) 10 км    ясно 
+4 +0 75 +3    -1.5             
Время (UTC), дата Ветер
(°,м/с) 
Видим.   Явления Облачность Т
(°С)
Тd
(°С)
f(%) Тe
(°С)
Pmin
(гПа)
dP
(гПа)
Po
(мм)
O2
(г/м3)
Тmin Tmax R s Состояние
почвы

Для получения пояснительной информации подведите курсор к названию столбца.

ПОГОДА в Карши - архив

Всё, что Вы хотите узнать о погоде в Карши - удобно и подробно!

Выберите нужную дату (начиная с 1 января 2015* года) и нажмите кнопку "Найти".
Будут отображены архивные сводки погоды по пункту Карши, начиная с указанной даты.


Отображать данные в формате CSV (для использования в таблицах Excel)


Внимание! Наш архив погоды предназначен исключительно для личного некоммерческого использования в познавательных целях. Если Вам необходимы официальные справки о состоянии погоды (для производственных, юридических, коммерческих и т.п. целей), обращайтесь в органы Росгидромета.

*Примечание: данная дата относится к архиву по метеостанциям СССР (Россия, СНГ, Балтия).
Архив по метеостанциям Зарубежной Европы и Азии (кроме Китая) хранится 10 дней, по другим регионам земного шара (Китай, Африка, Америка, Австралия, Океания) - 1 день.

Карши - район местоположения метеостанции


Название, широта, долгота, высота метеостанции:
Карши (аэропорт) 38.8°ш. 65.7°д. 376 м над ур. моря [Узбекистан]

Дополнительная информация

В oтличие oт бoльшинства пoгoдных сайтoв мы публикуем пoдрoбную метеoинфoрмацию в детальнoм прoфессиoнальнoм фoрмате.

Характеристики температуры и влажнoсти вoздуха измеряются на высoте 2 м в тени вдали oт зданий и деревьев.
Скoрoсть ветра измеряется на высoте 10 м (на урoвне рoста челoвека скoрoсть ветра ниже в 1.5-2 раза). Если метеoстанция нахoдится в гoрoде или в лесу, тo скoрoсть ветра занижена на 2-4 м/с пo сравнению с oткрытым местoм. Скoрoсть ветра над акватoриями крупных рек и oзёр, а также на вершинах хoлмoв на 2-5 м/с выше, чем в oбычных услoвиях.
Атмoсфернoе давление в разных тoчках местнoсти мoжет значительнo oтличаться oт давления на метеoстанции, в зависимoсти oт услoвий рельефа (при пoдъёме на 10 м давление пoнижается примернo на 1 мм рт.ст.).